owner,sensor,date,latitude,longitude,vertical_datum,mass_concentration_of_oxygen_in_sea_water,qcFlag 
TCOON,ioos:station:TCOON:170:1,2017-08-01T00:30:00Z,27.2970,-97.4049,1.0,5.01,1111122 
TCOON,ioos:station:TCOON:170:1,2017-08-01T01:30:00Z,27.2970,-97.4049,1.0,5.01,1111122 
TCOON,ioos:station:TCOON:170:1,2017-08-01T10:30:00Z,27.2970,-97.4049,1.0,3.36,1111122 
TCOON,ioos:station:TCOON:170:1,2017-08-01T14:30:00Z,27.2970,-97.4049,1.0,2.17,1111122 
TCOON,ioos:station:TCOON:170:1,2017-08-01T15:30:00Z,27.2970,-97.4049,1.0,2.87,1111122 
TCOON,ioos:station:TCOON:170:1,2017-08-01T16:30:00Z,27.2970,-97.4049,1.0,3.6,1111122 
TCOON,ioos:station:TCOON:170:1,2017-08-01T17:30:00Z,27.2970,-97.4049,1.0,4.84,1111122 
TCOON,ioos:station:TCOON:170:1,2017-08-01T19:30:00Z,27.2970,-97.4049,1.0,6.71,1111122 
TCOON,ioos:station:TCOON:170:1,2017-08-01T20:30:00Z,27.2970,-97.4049,1.0,7.08,1111122 
TCOON,ioos:station:TCOON:170:1,2017-08-01T22:00:00Z,27.2970,-97.4049,1.0,6.93,1111122 
TCOON,ioos:station:TCOON:170:1,2017-08-01T22:30:00Z,27.2970,-97.4049,1.0,6.77,1111122 
TCOON,ioos:station:TCOON:170:1,2017-08-02T01:30:00Z,27.2970,-97.4049,1.0,5.34,1111122 
TCOON,ioos:station:TCOON:170:1,2017-08-02T08:30:00Z,27.2970,-97.4049,1.0,4.36,1111122 
TCOON,ioos:station:TCOON:170:1,2017-08-02T11:30:00Z,27.2970,-97.4049,1.0,3.39,1111122 
TCOON,ioos:station:TCOON:170:1,2017-08-02T13:30:00Z,27.2970,-97.4049,1.0,3.2,1111122 
TCOON,ioos:station:TCOON:170:1,2017-08-02T14:30:00Z,27.2970,-97.4049,1.0,3.22,1111122 
TCOON,ioos:station:TCOON:170:1,2017-08-02T15:30:00Z,27.2970,-97.4049,1.0,3.51,1111122 
TCOON,ioos:station:TCOON:170:1,2017-08-02T16:30:00Z,27.2970,-97.4049,1.0,4.33,1111122 
TCOON,ioos:station:TCOON:170:1,2017-08-02T17:30:00Z,27.2970,-97.4049,1.0,4.58,1111122 
TCOON,ioos:station:TCOON:170:1,2017-08-02T18:30:00Z,27.2970,-97.4049,1.0,5.16,1111122 
TCOON,ioos:station:TCOON:170:1,2017-08-02T20:30:00Z,27.2970,-97.4049,1.0,5.27,1111122 
TCOON,ioos:station:TCOON:170:1,2017-08-03T01:30:00Z,27.2970,-97.4049,1.0,4.59,1111122 
TCOON,ioos:station:TCOON:170:1,2017-08-03T03:30:00Z,27.2970,-97.4049,1.0,4.11,1111122 
TCOON,ioos:station:TCOON:170:1,2017-08-03T05:30:00Z,27.2970,-97.4049,1.0,4.14,1111122 
TCOON,ioos:station:TCOON:170:1,2017-08-03T07:30:00Z,27.2970,-97.4049,1.0,3.58,1111122 
TCOON,ioos:station:TCOON:170:1,2017-08-03T08:30:00Z,27.2970,-97.4049,1.0,3.83,1111122 
TCOON,ioos:station:TCOON:170:1,2017-08-03T13:30:00Z,27.2970,-97.4049,1.0,2.97,1111122 
TCOON,ioos:station:TCOON:170:1,2017-08-03T14:30:00Z,27.2970,-97.4049,1.0,2.5,1111122 
TCOON,ioos:station:TCOON:170:1,2017-08-03T15:30:00Z,27.2970,-97.4049,1.0,3.36,1111122 
TCOON,ioos:station:TCOON:170:1,2017-08-03T16:30:00Z,27.2970,-97.4049,1.0,3.79,1111122 
TCOON,ioos:station:TCOON:170:1,2017-08-03T19:00:00Z,27.2970,-97.4049,1.0,4.85,1111122 
TCOON,ioos:station:TCOON:170:1,2017-08-03T21:30:00Z,27.2970,-97.4049,1.0,4.44,1111122 
TCOON,ioos:station:TCOON:170:1,2017-08-04T09:30:00Z,27.2970,-97.4049,1.0,2.81,1111122 
TCOON,ioos:station:TCOON:170:1,2017-08-04T11:30:00Z,27.2970,-97.4049,1.0,2.66,1111122 
TCOON,ioos:station:TCOON:170:1,2017-08-04T20:00:00Z,27.2970,-97.4049,1.0,4.58,1111122 
TCOON,ioos:station:TCOON:170:1,2017-08-04T21:30:00Z,27.2970,-97.4049,1.0,4.86,1111122 
TCOON,ioos:station:TCOON:170:1,2017-08-04T22:30:00Z,27.2970,-97.4049,1.0,5.24,1111122 
TCOON,ioos:station:TCOON:170:1,2017-08-05T05:30:00Z,27.2970,-97.4049,1.0,3.76,1111122 
TCOON,ioos:station:TCOON:170:1,2017-08-05T06:30:00Z,27.2970,-97.4049,1.0,3.77,1111122 
TCOON,ioos:station:TCOON:170:1,2017-08-05T07:30:00Z,27.2970,-97.4049,1.0,3.33,1111122 
TCOON,ioos:station:TCOON:170:1,2017-08-05T08:30:00Z,27.2970,-97.4049,1.0,3.37,1111122 
TCOON,ioos:station:TCOON:170:1,2017-08-05T09:30:00Z,27.2970,-97.4049,1.0,2.8,1111122 
TCOON,ioos:station:TCOON:170:1,2017-08-05T10:30:00Z,27.2970,-97.4049,1.0,3.18,1111122 
TCOON,ioos:station:TCOON:170:1,2017-08-05T11:30:00Z,27.2970,-97.4049,1.0,3.55,1111122 
TCOON,ioos:station:TCOON:170:1,2017-08-05T12:30:00Z,27.2970,-97.4049,1.0,3.34,1111122 
TCOON,ioos:station:TCOON:170:1,2017-08-05T14:30:00Z,27.2970,-97.4049,1.0,2.99,1111122 
TCOON,ioos:station:TCOON:170:1,2017-08-05T15:30:00Z,27.2970,-97.4049,1.0,3.33,1111122 
TCOON,ioos:station:TCOON:170:1,2017-08-05T17:00:00Z,27.2970,-97.4049,1.0,4.37,1111122 
TCOON,ioos:station:TCOON:170:1,2017-08-05T18:30:00Z,27.2970,-97.4049,1.0,5.42,1111122 
TCOON,ioos:station:TCOON:170:1,2017-08-05T22:00:00Z,27.2970,-97.4049,1.0,6.17,1111122 
TCOON,ioos:station:TCOON:170:1,2017-08-06T03:30:00Z,27.2970,-97.4049,1.0,4.14,1111122 
TCOON,ioos:station:TCOON:170:1,2017-08-06T04:30:00Z,27.2970,-97.4049,1.0,3.89,1111122 
TCOON,ioos:station:TCOON:170:1,2017-08-06T05:30:00Z,27.2970,-97.4049,1.0,3.82,1111122 
TCOON,ioos:station:TCOON:170:1,2017-08-06T06:30:00Z,27.2970,-97.4049,1.0,3.96,1111122 
TCOON,ioos:station:TCOON:170:1,2017-08-06T07:30:00Z,27.2970,-97.4049,1.0,3.5,1111122 
TCOON,ioos:station:TCOON:170:1,2017-08-06T08:30:00Z,27.2970,-97.4049,1.0,3.34,1111122 
TCOON,ioos:station:TCOON:170:1,2017-08-06T09:30:00Z,27.2970,-97.4049,1.0,3.62,1111122 
TCOON,ioos:station:TCOON:170:1,2017-08-06T10:30:00Z,27.2970,-97.4049,1.0,3.48,1111122 
TCOON,ioos:station:TCOON:170:1,2017-08-06T11:30:00Z,27.2970,-97.4049,1.0,3.43,1111122 
TCOON,ioos:station:TCOON:170:1,2017-08-06T12:30:00Z,27.2970,-97.4049,1.0,3.43,1111122 
TCOON,ioos:station:TCOON:170:1,2017-08-06T13:30:00Z,27.2970,-97.4049,1.0,3.5,1111122 
TCOON,ioos:station:TCOON:170:1,2017-08-06T14:30:00Z,27.2970,-97.4049,1.0,3.63,1111122 
TCOON,ioos:station:TCOON:170:1,2017-08-06T15:30:00Z,27.2970,-97.4049,1.0,4.13,1111122 
TCOON,ioos:station:TCOON:170:1,2017-08-06T16:30:00Z,27.2970,-97.4049,1.0,4.95,1111122 
TCOON,ioos:station:TCOON:170:1,2017-08-06T17:30:00Z,27.2970,-97.4049,1.0,5.05,1111122 
TCOON,ioos:station:TCOON:170:1,2017-08-06T18:30:00Z,27.2970,-97.4049,1.0,5.94,1111122 
TCOON,ioos:station:TCOON:170:1,2017-08-06T19:30:00Z,27.2970,-97.4049,1.0,6.49,1111122 
TCOON,ioos:station:TCOON:170:1,2017-08-06T20:30:00Z,27.2970,-97.4049,1.0,5.85,1111122 
TCOON,ioos:station:TCOON:170:1,2017-08-06T21:30:00Z,27.2970,-97.4049,1.0,6.34,1111122 
TCOON,ioos:station:TCOON:170:1,2017-08-06T22:30:00Z,27.2970,-97.4049,1.0,5.81,1111122 
TCOON,ioos:station:TCOON:170:1,2017-08-07T00:30:00Z,27.2970,-97.4049,1.0,5.16,1111122 
TCOON,ioos:station:TCOON:170:1,2017-08-07T01:30:00Z,27.2970,-97.4049,1.0,4.8,1111122 
TCOON,ioos:station:TCOON:170:1,2017-08-07T02:30:00Z,27.2970,-97.4049,1.0,4.65,1111122 
TCOON,ioos:station:TCOON:170:1,2017-08-07T03:30:00Z,27.2970,-97.4049,1.0,4.44,1111122 
TCOON,ioos:station:TCOON:170:1,2017-08-07T04:30:00Z,27.2970,-97.4049,1.0,4.04,1111122 
TCOON,ioos:station:TCOON:170:1,2017-08-07T05:30:00Z,27.2970,-97.4049,1.0,3.79,1111122 
TCOON,ioos:station:TCOON:170:1,2017-08-07T06:30:00Z,27.2970,-97.4049,1.0,3.81,1111122 
TCOON,ioos:station:TCOON:170:1,2017-08-07T08:30:00Z,27.2970,-97.4049,1.0,3.8,1111122 
TCOON,ioos:station:TCOON:170:1,2017-08-07T09:30:00Z,27.2970,-97.4049,1.0,3.85,1111122 
TCOON,ioos:station:TCOON:170:1,2017-08-07T10:30:00Z,27.2970,-97.4049,1.0,4.04,1111122 
TCOON,ioos:station:TCOON:170:1,2017-08-07T11:30:00Z,27.2970,-97.4049,1.0,3.61,1111122 
TCOON,ioos:station:TCOON:170:1,2017-08-07T12:30:00Z,27.2970,-97.4049,1.0,3.81,1111122 
TCOON,ioos:station:TCOON:170:1,2017-08-07T13:30:00Z,27.2970,-97.4049,1.0,3.74,1111122 
TCOON,ioos:station:TCOON:170:1,2017-08-07T14:30:00Z,27.2970,-97.4049,1.0,4.02,1111122 
TCOON,ioos:station:TCOON:170:1,2017-08-07T15:30:00Z,27.2970,-97.4049,1.0,4.54,1111122 
TCOON,ioos:station:TCOON:170:1,2017-08-07T17:30:00Z,27.2970,-97.4049,1.0,5.8,1111122 
TCOON,ioos:station:TCOON:170:1,2017-08-07T18:30:00Z,27.2970,-97.4049,1.0,6.22,1111122 
TCOON,ioos:station:TCOON:170:1,2017-08-07T19:30:00Z,27.2970,-97.4049,1.0,6.32,1111122 
TCOON,ioos:station:TCOON:170:1,2017-08-07T20:30:00Z,27.2970,-97.4049,1.0,6.23,1111122 
TCOON,ioos:station:TCOON:170:1,2017-08-07T21:30:00Z,27.2970,-97.4049,1.0,6.34,1111122 
TCOON,ioos:station:TCOON:170:1,2017-08-07T22:30:00Z,27.2970,-97.4049,1.0,6.1,1111122 
TCOON,ioos:station:TCOON:170:1,2017-08-07T23:30:00Z,27.2970,-97.4049,1.0,5.79,1111122 
TCOON,ioos:station:TCOON:170:1,2017-08-08T00:30:00Z,27.2970,-97.4049,1.0,5.64,1111122 
TCOON,ioos:station:TCOON:170:1,2017-08-08T01:30:00Z,27.2970,-97.4049,1.0,5.24,1111122 
TCOON,ioos:station:TCOON:170:1,2017-08-08T02:30:00Z,27.2970,-97.4049,1.0,5.05,1111122 
TCOON,ioos:station:TCOON:170:1,2017-08-08T03:30:00Z,27.2970,-97.4049,1.0,4.9,1111122 
TCOON,ioos:station:TCOON:170:1,2017-08-08T04:30:00Z,27.2970,-97.4049,1.0,4.79,1111122 
TCOON,ioos:station:TCOON:170:1,2017-08-08T05:30:00Z,27.2970,-97.4049,1.0,4.19,1111122 
TCOON,ioos:station:TCOON:170:1,2017-08-08T07:30:00Z,27.2970,-97.4049,1.0,3.93,1111122 
TCOON,ioos:station:TCOON:170:1,2017-08-08T11:30:00Z,27.2970,-97.4049,1.0,2.95,1111122 
TCOON,ioos:station:TCOON:170:1,2017-08-08T14:30:00Z,27.2970,-97.4049,1.0,3.21,1111122 
TCOON,ioos:station:TCOON:170:1,2017-08-08T15:30:00Z,27.2970,-97.4049,1.0,3.63,1111122 
TCOON,ioos:station:TCOON:170:1,2017-08-08T16:30:00Z,27.2970,-97.4049,1.0,3.71,1111122 
TCOON,ioos:station:TCOON:170:1,2017-08-08T17:30:00Z,27.2970,-97.4049,1.0,4.27,1111122 
TCOON,ioos:station:TCOON:170:1,2017-08-08T18:30:00Z,27.2970,-97.4049,1.0,4.37,1111122 
TCOON,ioos:station:TCOON:170:1,2017-08-08T20:30:00Z,27.2970,-97.4049,1.0,5.31,1111122 
TCOON,ioos:station:TCOON:170:1,2017-08-08T23:30:00Z,27.2970,-97.4049,1.0,5.9,1111122 
TCOON,ioos:station:TCOON:170:1,2017-08-09T00:30:00Z,27.2970,-97.4049,1.0,5.6,1111122 
TCOON,ioos:station:TCOON:170:1,2017-08-09T01:30:00Z,27.2970,-97.4049,1.0,4.8,1111122 
TCOON,ioos:station:TCOON:170:1,2017-08-09T02:30:00Z,27.2970,-97.4049,1.0,4.7,1111122 
TCOON,ioos:station:TCOON:170:1,2017-08-09T04:30:00Z,27.2970,-97.4049,1.0,4.02,1111122 
TCOON,ioos:station:TCOON:170:1,2017-08-09T10:30:00Z,27.2970,-97.4049,1.0,2.91,1111122 
TCOON,ioos:station:TCOON:170:1,2017-08-09T13:30:00Z,27.2970,-97.4049,1.0,2.58,1111122 
TCOON,ioos:station:TCOON:170:1,2017-08-09T14:30:00Z,27.2970,-97.4049,1.0,2.3,1111122 
TCOON,ioos:station:TCOON:170:1,2017-08-09T15:30:00Z,27.2970,-97.4049,1.0,2.52,1111122 
TCOON,ioos:station:TCOON:170:1,2017-08-09T16:30:00Z,27.2970,-97.4049,1.0,3.06,1111122 
TCOON,ioos:station:TCOON:170:1,2017-08-09T23:30:00Z,27.2970,-97.4049,1.0,5.96,1111122 
TCOON,ioos:station:TCOON:170:1,2017-08-10T00:30:00Z,27.2970,-97.4049,1.0,5.46,1111122 
TCOON,ioos:station:TCOON:170:1,2017-08-10T01:30:00Z,27.2970,-97.4049,1.0,5.36,1111122 
TCOON,ioos:station:TCOON:170:1,2017-08-10T02:30:00Z,27.2970,-97.4049,1.0,4.93,1111122 
TCOON,ioos:station:TCOON:170:1,2017-08-10T03:30:00Z,27.2970,-97.4049,1.0,4.4,1111122 
TCOON,ioos:station:TCOON:170:1,2017-08-10T04:30:00Z,27.2970,-97.4049,1.0,4.07,1111122 
TCOON,ioos:station:TCOON:170:1,2017-08-10T06:30:00Z,27.2970,-97.4049,1.0,3.73,1111122 
TCOON,ioos:station:TCOON:170:1,2017-08-10T09:30:00Z,27.2970,-97.4049,1.0,2.84,1111122 
TCOON,ioos:station:TCOON:170:1,2017-08-10T10:30:00Z,27.2970,-97.4049,1.0,2.89,1111122 
TCOON,ioos:station:TCOON:170:1,2017-08-10T11:30:00Z,27.2970,-97.4049,1.0,2.85,1111122 
TCOON,ioos:station:TCOON:170:1,2017-08-10T12:30:00Z,27.2970,-97.4049,1.0,3.14,1111122 
TCOON,ioos:station:TCOON:170:1,2017-08-10T13:30:00Z,27.2970,-97.4049,1.0,2.87,1111122 
TCOON,ioos:station:TCOON:170:1,2017-08-10T14:30:00Z,27.2970,-97.4049,1.0,2.95,1111122 
TCOON,ioos:station:TCOON:170:1,2017-08-10T15:30:00Z,27.2970,-97.4049,1.0,3.92,1111122 
TCOON,ioos:station:TCOON:170:1,2017-08-10T16:30:00Z,27.2970,-97.4049,1.0,3.58,1111122 
TCOON,ioos:station:TCOON:170:1,2017-08-10T17:30:00Z,27.2970,-97.4049,1.0,3.85,1111122 
TCOON,ioos:station:TCOON:170:1,2017-08-10T18:30:00Z,27.2970,-97.4049,1.0,4.57,1111122 
TCOON,ioos:station:TCOON:170:1,2017-08-10T19:30:00Z,27.2970,-97.4049,1.0,4.75,1111122 
TCOON,ioos:station:TCOON:170:1,2017-08-10T20:30:00Z,27.2970,-97.4049,1.0,4.93,1111122 
TCOON,ioos:station:TCOON:170:1,2017-08-10T22:30:00Z,27.2970,-97.4049,1.0,5.19,1111122 
TCOON,ioos:station:TCOON:170:1,2017-08-10T23:30:00Z,27.2970,-97.4049,1.0,5.05,1111122 
TCOON,ioos:station:TCOON:170:1,2017-08-11T00:30:00Z,27.2970,-97.4049,1.0,4.87,1111122 
TCOON,ioos:station:TCOON:170:1,2017-08-11T11:30:00Z,27.2970,-97.4049,1.0,1.48,1111122 
TCOON,ioos:station:TCOON:170:1,2017-08-11T14:30:00Z,27.2970,-97.4049,1.0,2.05,1111122 
TCOON,ioos:station:TCOON:170:1,2017-08-11T15:30:00Z,27.2970,-97.4049,1.0,1.78,1111122 
TCOON,ioos:station:TCOON:170:1,2017-08-11T16:30:00Z,27.2970,-97.4049,1.0,2.1,1111122 
TCOON,ioos:station:TCOON:170:1,2017-08-11T17:30:00Z,27.2970,-97.4049,1.0,2.43,1111122 
TCOON,ioos:station:TCOON:170:1,2017-08-11T18:30:00Z,27.2970,-97.4049,1.0,2.95,1111122 
TCOON,ioos:station:TCOON:170:1,2017-08-11T19:30:00Z,27.2970,-97.4049,1.0,3.69,1111122 
TCOON,ioos:station:TCOON:170:1,2017-08-11T21:30:00Z,27.2970,-97.4049,1.0,5.07,1111122 
TCOON,ioos:station:TCOON:170:1,2017-08-11T23:30:00Z,27.2970,-97.4049,1.0,5.01,1111122 
TCOON,ioos:station:TCOON:170:1,2017-08-12T01:30:00Z,27.2970,-97.4049,1.0,4.13,1111122 
TCOON,ioos:station:TCOON:170:1,2017-08-12T03:30:00Z,27.2970,-97.4049,1.0,3.14,1111122 
TCOON,ioos:station:TCOON:170:1,2017-08-12T04:30:00Z,27.2970,-97.4049,1.0,2.89,1111122 
TCOON,ioos:station:TCOON:170:1,2017-08-12T05:30:00Z,27.2970,-97.4049,1.0,2.9,1111122 
TCOON,ioos:station:TCOON:170:1,2017-08-12T07:30:00Z,27.2970,-97.4049,1.0,2.57,1111122 
TCOON,ioos:station:TCOON:170:1,2017-08-12T08:30:00Z,27.2970,-97.4049,1.0,2.53,1111122 
TCOON,ioos:station:TCOON:170:1,2017-08-12T09:30:00Z,27.2970,-97.4049,1.0,2.47,1111122 
TCOON,ioos:station:TCOON:170:1,2017-08-12T10:30:00Z,27.2970,-97.4049,1.0,2.51,1111122 
TCOON,ioos:station:TCOON:170:1,2017-08-12T11:30:00Z,27.2970,-97.4049,1.0,2.28,1111122 
TCOON,ioos:station:TCOON:170:1,2017-08-12T12:30:00Z,27.2970,-97.4049,1.0,2.44,1111122 
TCOON,ioos:station:TCOON:170:1,2017-08-12T13:30:00Z,27.2970,-97.4049,1.0,2.43,1111122 
TCOON,ioos:station:TCOON:170:1,2017-08-12T14:30:00Z,27.2970,-97.4049,1.0,2.88,1111122 
TCOON,ioos:station:TCOON:170:1,2017-08-12T15:30:00Z,27.2970,-97.4049,1.0,2.98,1111122 
TCOON,ioos:station:TCOON:170:1,2017-08-12T16:30:00Z,27.2970,-97.4049,1.0,3.63,1111122 
TCOON,ioos:station:TCOON:170:1,2017-08-12T17:30:00Z,27.2970,-97.4049,1.0,4.17,1111122 
TCOON,ioos:station:TCOON:170:1,2017-08-13T01:30:00Z,27.2970,-97.4049,1.0,4.64,1111122 
TCOON,ioos:station:TCOON:170:1,2017-08-13T02:30:00Z,27.2970,-97.4049,1.0,4.15,1111122 
TCOON,ioos:station:TCOON:170:1,2017-08-13T03:30:00Z,27.2970,-97.4049,1.0,3.24,1111122 
TCOON,ioos:station:TCOON:170:1,2017-08-13T04:30:00Z,27.2970,-97.4049,1.0,3.39,1111122 
TCOON,ioos:station:TCOON:170:1,2017-08-13T05:30:00Z,27.2970,-97.4049,1.0,2.93,1111122 
TCOON,ioos:station:TCOON:170:1,2017-08-13T06:30:00Z,27.2970,-97.4049,1.0,2.73,1111122 
TCOON,ioos:station:TCOON:170:1,2017-08-13T07:30:00Z,27.2970,-97.4049,1.0,2.87,1111122 
TCOON,ioos:station:TCOON:170:1,2017-08-13T08:30:00Z,27.2970,-97.4049,1.0,2.58,1111122 
TCOON,ioos:station:TCOON:170:1,2017-08-13T09:30:00Z,27.2970,-97.4049,1.0,2.92,1111122 
TCOON,ioos:station:TCOON:170:1,2017-08-13T12:30:00Z,27.2970,-97.4049,1.0,2.59,1111122 
TCOON,ioos:station:TCOON:170:1,2017-08-13T15:30:00Z,27.2970,-97.4049,1.0,3.48,1111122 
TCOON,ioos:station:TCOON:170:1,2017-08-13T16:30:00Z,27.2970,-97.4049,1.0,3.92,1111122 
TCOON,ioos:station:TCOON:170:1,2017-08-13T23:30:00Z,27.2970,-97.4049,1.0,4.78,1111122 
TCOON,ioos:station:TCOON:170:1,2017-08-14T00:30:00Z,27.2970,-97.4049,1.0,4.6,1111122 
TCOON,ioos:station:TCOON:170:1,2017-08-14T04:30:00Z,27.2970,-97.4049,1.0,3.58,1111122 
TCOON,ioos:station:TCOON:170:1,2017-08-14T05:30:00Z,27.2970,-97.4049,1.0,2.9,1111122 
TCOON,ioos:station:TCOON:170:1,2017-08-14T06:30:00Z,27.2970,-97.4049,1.0,2.79,1111122 
TCOON,ioos:station:TCOON:170:1,2017-08-14T09:30:00Z,27.2970,-97.4049,1.0,2.71,1111122 
TCOON,ioos:station:TCOON:170:1,2017-08-14T10:30:00Z,27.2970,-97.4049,1.0,2.81,1111122 
TCOON,ioos:station:TCOON:170:1,2017-08-14T11:30:00Z,27.2970,-97.4049,1.0,2.86,1111122 
TCOON,ioos:station:TCOON:170:1,2017-08-14T12:30:00Z,27.2970,-97.4049,1.0,2.72,1111122 
TCOON,ioos:station:TCOON:170:1,2017-08-14T13:30:00Z,27.2970,-97.4049,1.0,2.81,1111122 
TCOON,ioos:station:TCOON:170:1,2017-08-14T14:30:00Z,27.2970,-97.4049,1.0,3.2,1111122 
TCOON,ioos:station:TCOON:170:1,2017-08-14T15:30:00Z,27.2970,-97.4049,1.0,3.53,1111122 
TCOON,ioos:station:TCOON:170:1,2017-08-14T18:30:00Z,27.2970,-97.4049,1.0,4.93,1111122 
TCOON,ioos:station:TCOON:170:1,2017-08-14T20:30:00Z,27.2970,-97.4049,1.0,5.52,1111122 
TCOON,ioos:station:TCOON:170:1,2017-08-14T23:30:00Z,27.2970,-97.4049,1.0,4.92,1111122 
TCOON,ioos:station:TCOON:170:1,2017-08-15T00:30:00Z,27.2970,-97.4049,1.0,4.32,1111122 
TCOON,ioos:station:TCOON:170:1,2017-08-15T01:30:00Z,27.2970,-97.4049,1.0,4.04,1111122 
TCOON,ioos:station:TCOON:170:1,2017-08-15T02:30:00Z,27.2970,-97.4049,1.0,3.6,1111122 
TCOON,ioos:station:TCOON:170:1,2017-08-15T03:30:00Z,27.2970,-97.4049,1.0,3.62,1111122 
TCOON,ioos:station:TCOON:170:1,2017-08-15T04:30:00Z,27.2970,-97.4049,1.0,2.94,1111122 
TCOON,ioos:station:TCOON:170:1,2017-08-15T05:30:00Z,27.2970,-97.4049,1.0,3.0,1111122 
TCOON,ioos:station:TCOON:170:1,2017-08-15T07:30:00Z,27.2970,-97.4049,1.0,2.78,1111122 
TCOON,ioos:station:TCOON:170:1,2017-08-15T08:30:00Z,27.2970,-97.4049,1.0,2.67,1111122 
TCOON,ioos:station:TCOON:170:1,2017-08-15T09:30:00Z,27.2970,-97.4049,1.0,3.0,1111122 
TCOON,ioos:station:TCOON:170:1,2017-08-15T10:30:00Z,27.2970,-97.4049,1.0,2.62,1111122 
TCOON,ioos:station:TCOON:170:1,2017-08-15T12:30:00Z,27.2970,-97.4049,1.0,2.71,1111122 
TCOON,ioos:station:TCOON:170:1,2017-08-15T13:30:00Z,27.2970,-97.4049,1.0,2.69,1111122 
TCOON,ioos:station:TCOON:170:1,2017-08-15T14:30:00Z,27.2970,-97.4049,1.0,2.43,1111122 
TCOON,ioos:station:TCOON:170:1,2017-08-15T15:30:00Z,27.2970,-97.4049,1.0,2.95,1111122 
TCOON,ioos:station:TCOON:170:1,2017-08-15T16:30:00Z,27.2970,-97.4049,1.0,3.7,1111122 
TCOON,ioos:station:TCOON:170:1,2017-08-16T11:30:00Z,27.2970,-97.4049,1.0,2.63,1111122 
TCOON,ioos:station:TCOON:170:1,2017-08-16T12:30:00Z,27.2970,-97.4049,1.0,2.39,1111122 
TCOON,ioos:station:TCOON:170:1,2017-08-16T13:30:00Z,27.2970,-97.4049,1.0,2.37,1111122 
TCOON,ioos:station:TCOON:170:1,2017-08-16T14:30:00Z,27.2970,-97.4049,1.0,2.52,1111122 
TCOON,ioos:station:TCOON:170:1,2017-08-16T15:30:00Z,27.2970,-97.4049,1.0,3.08,1111122 
TCOON,ioos:station:TCOON:170:1,2017-08-16T16:30:00Z,27.2970,-97.4049,1.0,3.89,1111122 
TCOON,ioos:station:TCOON:170:1,2017-08-16T17:30:00Z,27.2970,-97.4049,1.0,4.48,1111122 
TCOON,ioos:station:TCOON:170:1,2017-08-16T20:30:00Z,27.2970,-97.4049,1.0,4.78,1111122 
TCOON,ioos:station:TCOON:170:1,2017-08-16T21:30:00Z,27.2970,-97.4049,1.0,4.62,1111122 
TCOON,ioos:station:TCOON:170:1,2017-08-16T22:30:00Z,27.2970,-97.4049,1.0,4.76,1111122 
TCOON,ioos:station:TCOON:170:1,2017-08-17T04:30:00Z,27.2970,-97.4049,1.0,2.97,1111122 
TCOON,ioos:station:TCOON:170:1,2017-08-17T05:30:00Z,27.2970,-97.4049,1.0,3.08,1111122 
TCOON,ioos:station:TCOON:170:1,2017-08-17T06:30:00Z,27.2970,-97.4049,1.0,2.76,1111122 
TCOON,ioos:station:TCOON:170:1,2017-08-17T07:30:00Z,27.2970,-97.4049,1.0,2.64,1111122 
TCOON,ioos:station:TCOON:170:1,2017-08-17T08:30:00Z,27.2970,-97.4049,1.0,2.83,1111122 
TCOON,ioos:station:TCOON:170:1,2017-08-17T09:30:00Z,27.2970,-97.4049,1.0,2.79,1111122 
TCOON,ioos:station:TCOON:170:1,2017-08-17T10:30:00Z,27.2970,-97.4049,1.0,2.36,1111122 
TCOON,ioos:station:TCOON:170:1,2017-08-17T11:30:00Z,27.2970,-97.4049,1.0,2.27,1111122 
TCOON,ioos:station:TCOON:170:1,2017-08-17T12:30:00Z,27.2970,-97.4049,1.0,2.48,1111122 
TCOON,ioos:station:TCOON:170:1,2017-08-17T13:30:00Z,27.2970,-97.4049,1.0,2.3,1111122 
TCOON,ioos:station:TCOON:170:1,2017-08-17T14:30:00Z,27.2970,-97.4049,1.0,2.45,1111122 
TCOON,ioos:station:TCOON:170:1,2017-08-17T15:30:00Z,27.2970,-97.4049,1.0,2.94,1111122 
TCOON,ioos:station:TCOON:170:1,2017-08-17T16:30:00Z,27.2970,-97.4049,1.0,3.3,1111122 
TCOON,ioos:station:TCOON:170:1,2017-08-17T17:30:00Z,27.2970,-97.4049,1.0,3.75,1111122 
TCOON,ioos:station:TCOON:170:1,2017-08-17T18:30:00Z,27.2970,-97.4049,1.0,4.65,1111122 
TCOON,ioos:station:TCOON:170:1,2017-08-17T19:30:00Z,27.2970,-97.4049,1.0,4.5,1111122 
TCOON,ioos:station:TCOON:170:1,2017-08-17T20:30:00Z,27.2970,-97.4049,1.0,4.5,1111122 
TCOON,ioos:station:TCOON:170:1,2017-08-17T22:30:00Z,27.2970,-97.4049,1.0,4.07,1111122 
TCOON,ioos:station:TCOON:170:1,2017-08-18T00:30:00Z,27.2970,-97.4049,1.0,3.8,1111122 
TCOON,ioos:station:TCOON:170:1,2017-08-18T01:30:00Z,27.2970,-97.4049,1.0,3.71,1111122 
TCOON,ioos:station:TCOON:170:1,2017-08-18T02:30:00Z,27.2970,-97.4049,1.0,3.31,1111122 
TCOON,ioos:station:TCOON:170:1,2017-08-18T05:30:00Z,27.2970,-97.4049,1.0,2.54,1111122 
TCOON,ioos:station:TCOON:170:1,2017-08-18T06:30:00Z,27.2970,-97.4049,1.0,3.03,1111122 
TCOON,ioos:station:TCOON:170:1,2017-08-18T07:30:00Z,27.2970,-97.4049,1.0,2.38,1111122 
TCOON,ioos:station:TCOON:170:1,2017-08-18T08:30:00Z,27.2970,-97.4049,1.0,2.24,1111122 
TCOON,ioos:station:TCOON:170:1,2017-08-18T09:30:00Z,27.2970,-97.4049,1.0,2.44,1111122 
TCOON,ioos:station:TCOON:170:1,2017-08-18T10:30:00Z,27.2970,-97.4049,1.0,2.78,1111122 
TCOON,ioos:station:TCOON:170:1,2017-08-18T11:30:00Z,27.2970,-97.4049,1.0,2.18,1111122 
TCOON,ioos:station:TCOON:170:1,2017-08-18T12:30:00Z,27.2970,-97.4049,1.0,2.2,1111122 
TCOON,ioos:station:TCOON:170:1,2017-08-18T13:30:00Z,27.2970,-97.4049,1.0,2.34,1111122 
TCOON,ioos:station:TCOON:170:1,2017-08-18T14:30:00Z,27.2970,-97.4049,1.0,2.28,1111122 
TCOON,ioos:station:TCOON:170:1,2017-08-18T15:30:00Z,27.2970,-97.4049,1.0,2.4,1111122 
TCOON,ioos:station:TCOON:170:1,2017-08-18T16:30:00Z,27.2970,-97.4049,1.0,2.61,1111122 
TCOON,ioos:station:TCOON:170:1,2017-08-18T17:30:00Z,27.2970,-97.4049,1.0,2.87,1111122 
TCOON,ioos:station:TCOON:170:1,2017-08-18T18:30:00Z,27.2970,-97.4049,1.0,3.59,1111122 
TCOON,ioos:station:TCOON:170:1,2017-08-18T19:30:00Z,27.2970,-97.4049,1.0,3.37,1111122 
TCOON,ioos:station:TCOON:170:1,2017-08-18T21:00:00Z,27.2970,-97.4049,1.0,3.92,1111122 
TCOON,ioos:station:TCOON:170:1,2017-08-18T22:00:00Z,27.2970,-97.4049,1.0,4.39,1111122 
TCOON,ioos:station:TCOON:170:1,2017-08-18T23:00:00Z,27.2970,-97.4049,1.0,4.21,1111122 
TCOON,ioos:station:TCOON:170:1,2017-08-19T00:00:00Z,27.2970,-97.4049,1.0,4.47,1111122 
TCOON,ioos:station:TCOON:170:1,2017-08-19T06:30:00Z,27.2970,-97.4049,1.0,2.68,1111122 
TCOON,ioos:station:TCOON:170:1,2017-08-19T07:30:00Z,27.2970,-97.4049,1.0,2.53,1111122 
TCOON,ioos:station:TCOON:170:1,2017-08-19T10:30:00Z,27.2970,-97.4049,1.0,2.32,1111122 
TCOON,ioos:station:TCOON:170:1,2017-08-19T11:30:00Z,27.2970,-97.4049,1.0,2.54,1111122 
TCOON,ioos:station:TCOON:170:1,2017-08-19T13:30:00Z,27.2970,-97.4049,1.0,2.29,1111122 
TCOON,ioos:station:TCOON:170:1,2017-08-19T15:30:00Z,27.2970,-97.4049,1.0,2.39,1111122 
TCOON,ioos:station:TCOON:170:1,2017-08-19T16:30:00Z,27.2970,-97.4049,1.0,2.51,1111122 
TCOON,ioos:station:TCOON:170:1,2017-08-19T18:30:00Z,27.2970,-97.4049,1.0,3.19,1111122 
TCOON,ioos:station:TCOON:170:1,2017-08-19T20:30:00Z,27.2970,-97.4049,1.0,3.93,1111122 
TCOON,ioos:station:TCOON:170:1,2017-08-19T21:30:00Z,27.2970,-97.4049,1.0,4.18,1111122 
TCOON,ioos:station:TCOON:170:1,2017-08-19T22:30:00Z,27.2970,-97.4049,1.0,3.95,1111122 
TCOON,ioos:station:TCOON:170:1,2017-08-19T23:30:00Z,27.2970,-97.4049,1.0,4.39,1111122 
TCOON,ioos:station:TCOON:170:1,2017-08-20T00:30:00Z,27.2970,-97.4049,1.0,3.67,1111122 
TCOON,ioos:station:TCOON:170:1,2017-08-20T01:30:00Z,27.2970,-97.4049,1.0,3.43,1111122 
TCOON,ioos:station:TCOON:170:1,2017-08-20T02:30:00Z,27.2970,-97.4049,1.0,3.53,1111122 
TCOON,ioos:station:TCOON:170:1,2017-08-20T03:30:00Z,27.2970,-97.4049,1.0,2.96,1111122 
TCOON,ioos:station:TCOON:170:1,2017-08-20T06:30:00Z,27.2970,-97.4049,1.0,3.03,1111122 
TCOON,ioos:station:TCOON:170:1,2017-08-20T07:30:00Z,27.2970,-97.4049,1.0,2.52,1111122 
TCOON,ioos:station:TCOON:170:1,2017-08-20T09:30:00Z,27.2970,-97.4049,1.0,2.42,1111122 
TCOON,ioos:station:TCOON:170:1,2017-08-20T11:30:00Z,27.2970,-97.4049,1.0,1.99,1111122 
TCOON,ioos:station:TCOON:170:1,2017-08-20T14:30:00Z,27.2970,-97.4049,1.0,2.51,1111122 